Location: Hermaringen
(48.5952°N, 10.2585°E)
Time: 22:10:10
(UTC+00:00)

Altair - Pass Details

Date: 21 February 2026
Orbit: 1502 x 1682 km, 47.2° (Epoch: 10 March)

Event Time Altitude Azimuth Distance (km) Brightness Sun altitude
Exits shadow 01:55:14 28° 126° (SE) 2,542 8.6 -41.8°
Drops below altitude 10° 02:01:51 10° 81° (E) 3,702 10.0 -40.9°
Sets 02:05:27 0° 70° (ENE) 4,711 10.9 -40.5°
